Location: Lichtensteig
(47.3376°N, 9.0841°E)
Time: 03:09:54
(UTC+00:00)

Gbstr 26 Del rocket - Pass Details

Date: 03 March 2021
Orbit: 492 x 1264 km, 51.8° (Epoch: 17 April)

Event Time Altitude Azimuth Distance (km) Brightness Sun altitude
Rises 18:07:34 0° 268° (W) 2,750 8.7 -10.2°
Reaches altitude 10° 18:09:40 10° 273° (W) 1,931 7.2 -10.6°
Maximum altitude 18:13:59 54° 352° (N) 819 3.7 -11.3°
Enters shadow 18:18:33 13° 68° (ENE) 2,097 5.2 -12.1°
